Theta_e
302 302 302 301 301 302 302 303 302 302 301 301 302 302 302 303 303 303 303 303 302 302 302 303 303 301 301 303 303 303 301 298 296 295 296 301 303 300 300 299 300 302 301 300 300 299 298 298 299 300 300 301 307 308 311 319 325 327 327 330 331 331 331 330 332 330 331 334 330 327 327 329 332 328 330 334 334 336 335 335 336 335 334 334 336 338 338 339
302 302 302 301 301 302 302 302 301 302 302 302 302 302 302 303 303 303 303 303 303 303 302 302 303 302 301 302 303 302 299 297 295 296 299 304 305 304 303 302 304 304 302 301 301 300 299 299 299 300 300 302 312 314 312 318 324 327 327 329 330 329 329 327 329 328 327 330 328 328 328 329 332 328 329 336 336 335 336 336 336 336 336 336 337 339 339 338
301 301 301 301 301 302 301 301 301 302 302 302 302 302 303 303 303 302 302 303 303 303 302 302 301 302 301 302 302 301 299 296 295 300 304 306 307 307 307 306 307 305 303 302 302 301 301 299 298 299 302 304 311 316 315 317 324 326 327 329 329 327 327 326 327 327 327 328 328 328 328 328 328 327 329 332 332 332 334 334 333 336 337 337 339 338 338 338
301 301 301 301 301 302 301 301 302 302 302 302 302 302 303 303 303 302 302 302 303 303 303 302 301 301 301 302 302 300 298 296 297 305 306 306 307 308 308 307 307 306 304 304 302 302 302 300 299 299 304 307 309 314 316 316 322 326 326 328 327 325 327 327 327 327 327 328 328 328 328 328 327 327 327 329 333 331 328 329 331 335 338 338 339 338 339 339
301 302 301 301 301 301 302 302 302 302 302 301 300 300 301 302 303 303 303 303 303 303 304 302 301 301 302 302 301 299 298 297 301 307 306 306 307 307 307 306 306 306 305 305 303 303 302 300 299 300 306 309 309 312 315 315 320 324 325 326 324 324 327 326 327 327 327 328 327 328 329 329 327 325 323 325 329 325 320 326 333 335 337 337 338 338 339 340
301 302 301 301 302 302 302 302 302 302 301 299 299 300 300 301 302 303 303 303 303 303 304 302 301 301 301 302 301 299 297 298 302 305 306 305 306 307 306 305 304 305 305 304 303 304 303 301 300 304 308 310 310 311 313 315 317 322 324 325 324 324 325 325 327 327 327 327 327 328 328 327 325 321 318 318 317 315 316 325 333 334 333 334 336 337 337 337
301 301 301 301 301 302 303 303 303 301 299 299 302 302 302 300 300 302 303 303 303 303 303 302 301 301 301 301 300 299 297 298 300 301 303 303 304 306 306 304 303 303 303 303 304 305 305 301 301 306 308 309 309 309 311 312 314 318 321 324 325 325 324 325 327 327 326 327 327 328 327 327 326 321 317 314 312 313 317 324 329 329 330 332 333 331 331 332
301 301 301 301 301 302 303 302 302 301 300 302 304 303 303 301 298 300 303 303 303 303 303 302 301 301 300 300 300 299 298 297 298 298 300 302 304 306 304 303 302 302 302 303 305 306 306 303 303 307 308 309 309 309 310 312 314 316 318 321 324 324 325 325 327 327 326 326 327 327 326 325 324 320 315 311 311 312 317 323 324 326 327 327 328 327 327 327
301 301 301 301 302 302 303 302 302 301 300 301 303 302 302 302 299 299 302 303 303 303 303 302 301 301 301 301 300 300 298 296 297 300 301 303 305 304 303 302 301 301 303 304 305 306 306 305 305 307 308 308 308 308 310 312 315 316 317 320 322 324 324 325 325 326 326 326 326 326 325 322 322 321 314 310 310 311 318 322 320 325 325 321 324 323 322 322
301 301 301 301 302 302 303 302 302 302 300 299 301 301 300 300 300 299 300 301 302 302 302 302 302 301 301 301 300 299 299 297 297 301 303 303 304 304 302 300 299 300 302 303 305 305 306 307 306 307 307 307 307 308 308 310 313 314 316 318 321 323 324 325 325 326 326 326 326 326 325 323 324 324 317 311 309 311 317 317 316 321 319 315 317 317 318 320
301 301 301 301 301 302 302 301 302 302 302 301 302 302 301 300 299 299 299 299 300 301 301 302 302 301 300 300 300 299 299 300 301 302 304 303 304 302 300 300 299 299 300 302 303 304 305 307 307 307 308 307 308 309 308 310 311 313 314 316 320 322 323 323 323 325 326 326 325 325 325 325 325 321 315 310 309 313 314 310 309 311 310 310 311 312 316 318
301 301 301 301 301 301 301 301 302 302 302 302 302 303 303 301 300 301 301 299 298 300 301 301 301 301 300 300 300 299 298 301 304 304 304 304 303 301 299 300 300 300 300 300 302 303 303 305 306 307 308 308 308 310 310 310 311 312 314 316 320 322 324 323 322 323 325 326 325 324 326 327 322 315 311 308 308 314 311 305 304 304 304 305 306 308 312 312
300 301 301 301 301 301 300 300 301 302 302 302 301 302 302 300 300 302 302 301 300 299 300 301 301 300 300 301 300 299 298 299 302 304 304 304 302 300 299 299 300 301 300 300 301 303 303 303 305 306 307 308 309 310 310 309 310 313 314 317 319 321 324 323 322 322 323 326 324 325 329 324 316 311 310 308 307 312 307 301 300 300 300 301 302 305 306 307
300 300 301 301 300 300 299 300 300 302 302 302 302 302 301 299 300 303 302 302 301 300 301 301 301 301 300 301 299 298 298 297 299 301 302 303 301 300 300 300 301 301 301 300 302 303 303 303 304 305 305 307 308 308 308 309 311 314 314 317 319 321 322 323 324 321 322 325 324 327 325 315 311 309 308 306 305 307 302 298 298 297 298 299 300 300 301 303
300 300 300 300 300 300 300 300 300 301 301 301 301 301 300 300 300 302 302 301 301 300 301 301 301 301 300 300 298 299 300 299 300 301 301 302 301 301 301 302 302 302 302 302 302 302 303 303 303 304 305 307 308 308 308 310 313 315 315 318 320 319 320 323 323 321 323 323 320 324 319 309 308 306 304 303 302 303 300 297 297 296 296 297 297 297 298 300
300 300 300 300 300 300 300 300 300 300 301 300 300 300 301 301 300 301 301 300 300 299 300 300 300 300 300 299 299 300 302 301 302 303 303 302 302 303 303 303 303 303 303 303 303 303 303 303 303 305 306 307 307 307 308 309 312 314 315 318 320 320 320 323 324 321 323 318 313 317 314 307 305 302 301 301 300 300 298 297 296 296 295 295 295 294 296 298
300 300 299 299 300 300 300 300 300 301 302 301 300 300 301 302 301 301 301 300 300 299 299 299 299 299 300 300 299 301 302 301 302 303 303 303 303 303 303 303 303 303 303 304 304 304 304 304 304 306 306 306 307 307 307 308 310 313 314 316 318 320 320 323 325 320 317 312 307 308 307 304 303 301 300 299 299 298 298 297 296 295 294 294 293 293 294 296
300 299 299 299 299 299 299 300 300 300 301 301 300 300 301 302 302 301 301 300 300 300 300 299 300 301 301 299 300 301 301 301 301 302 302 302 302 302 302 303 303 303 303 304 304 304 305 304 305 306 305 306 307 307 307 307 310 312 313 315 317 320 320 323 323 314 309 308 305 304 302 301 300 300 300 298 298 298 297 297 296 294 294 293 293 292 292 293
299 299 299 299 299 299 298 299 300 300 301 301 300 300 300 301 301 302 301 301 300 301 301 300 300 301 300 299 300 301 301 301 301 301 301 301 302 302 302 302 303 303 302 303 304 304 304 304 304 305 304 304 306 306 306 307 310 310 311 313 316 320 321 320 316 308 305 304 303 302 301 299 298 298 299 299 298 298 297 296 295 295 294 293 292 291 291 291
299 299 299 299 299 298 298 299 299 300 300 300 300 300 300 300 301 301 301 301 301 301 301 300 300 300 300 300 301 301 301 301 301 301 301 301 301 301 301 302 302 303 302 303 304 304 303 303 303 303 302 303 304 306 306 306 308 308 309 312 315 319 318 313 309 307 305 304 301 300 299 298 298 296 297 297 297 297 297 296 296 295 294 294 292 291 291 290
299 300 299 299 298 298 298 298 299 300 300 300 300 300 300 300 301 301 301 300 301 300 300 300 300 300 300 301 301 301 301 301 301 301 301 301 302 302 302 302 302 303 302 302 303 303 303 303 302 302 302 303 305 306 306 306 306 307 309 311 314 316 313 309 307 308 306 304 301 299 298 297 297 296 296 295 295 296 296 296 296 295 294 294 293 292 291 291
298 299 300 299 299 298 298 298 300 300 300 300 300 300 300 300 301 300 300 301 300 300 300 300 300 300 300 301 301 301 301 301 301 301 301 301 302 302 302 302 303 302 302 302 302 302 302 302 302 301 302 305 307 307 307 306 306 307 309 312 313 312 310 309 307 307 306 304 302 300 298 297 296 295 295 295 294 295 295 295 295 295 294 293 293 291 291 291
298 299 300 299 299 298 298 298 299 300 300 300 301 300 300 300 300 300 300 301 301 300 300 300 300 300 300 301 301 301 302 301 301 301 301 301 302 302 302 302 302 302 302 302 301 301 302 302 302 301 302 305 306 307 307 307 307 308 308 311 314 311 311 312 308 306 306 304 302 300 299 298 297 296 295 295 295 294 294 293 293 293 293 292 291 290 290 291
297 298 299 300 299 298 298 298 299 300 300 300 301 300 300 300 299 300 301 300 300 300 300 300 300 301 301 301 301 301 302 301 301 301 301 301 302 302 302 301 301 301 301 301 301 301 301 302 302 301 303 305 305 306 307 306 307 308 308 310 313 312 312 311 307 304 304 303 303 304 305 301 298 297 295 295 295 294 294 293 293 292 292 291 290 290 290 290
297 298 299 299 299 298 298 298 299 299 299 300 301 300 300 300 299 300 300 300 302 301 300 301 301 301 301 301 302 301 302 302 301 301 301 301 302 302 302 301 301 301 301 301 301 301 301 301 301 302 303 304 305 306 306 306 306 307 308 309 310 310 308 307 306 306 306 306 306 311 315 307 299 297 296 295 295 294 294 294 293 292 291 291 291 290 289 289
297 298 299 299 299 298 298 299 299 299 299 300 301 300 300 300 299 300 299 302 306 302 300 302 302 302 302 302 302 301 302 302 301 301 302 302 302 302 302 302 301 301 301 301 301 302 301 301 302 303 303 304 305 305 305 306 306 307 309 311 310 308 307 307 309 310 310 311 310 312 318 311 301 298 296 295 295 294 294 294 293 292 291 291 290 290 289 289
298 298 299 299 298 298 299 299 299 299 299 300 300 300 300 299 300 300 300 305 306 300 300 302 302 302 302 301 301 302 303 302 301 302 302 302 302 302 302 302 301 302 301 301 301 302 302 302 303 303 303 304 305 305 306 307 307 308 310 312 310 307 308 310 312 313 313 314 313 311 313 312 306 301 296 295 295 294 294 294 293 292 292 291 290 290 289 289
298 299 299 299 298 298 299 299 299 299 299 299 300 300 300 300 300 299 302 307 304 299 302 302 302 303 302 301 301 301 302 302 302 303 302 302 303 302 302 302 302 302 301 301 301 301 302 303 302 303 304 304 304 305 307 308 308 310 311 310 309 309 310 311 313 315 314 315 316 313 313 315 310 300 296 296 295 295 294 294 294 292 292 291 290 290 289 289
299 299 298 298 298 299 299 299 300 300 300 299 300 300 300 301 300 300 305 307 302 301 302 301 302 303 301 300 301 301 301 301 302 302 302 302 303 302 302 302 302 301 300 301 301 301 301 302 302 303 304 304 305 305 308 309 309 310 310 309 311 313 312 313 313 314 315 316 318 315 313 318 313 300 296 297 296 295 295 294 294 293 292 291 290 290 289 289
299 299 299 298 298 299 299 300 300 299 300 300 300 300 301 300 300 304 308 305 301 301 301 301 302 301 300 300 300 301 301 301 301 301 301 301 302 302 301 301 301 301 301 301 301 300 300 301 302 303 304 304 305 305 307 309 309 309 309 309 312 314 314 315 315 314 316 318 316 313 311 316 318 306 298 298 298 296 294 294 294 293 292 291 290 290 290 290
299 299 299 298 298 298 299 299 299 300 300 300 300 300 300 300 302 308 308 301 300 302 301 301 301 300 299 299 300 301 301 301 301 300 301 301 302 302 301 301 302 301 302 302 302 301 300 302 303 304 304 304 305 306 307 308 309 310 309 310 313 314 314 316 316 315 318 318 314 311 310 315 322 312 301 299 298 296 294 293 293 293 292 291 291 290 290 290
299 300 299 298 298 299 299 299 300 300 300 301 300 300 301 302 304 306 305 301 302 303 301 300 300 299 298 298 300 301 300 301 301 301 302 302 302 302 301 303 303 302 302 302 302 301 302 304 304 304 304 305 306 307 308 309 310 311 310 312 314 315 316 317 317 316 317 316 312 311 312 315 319 311 301 300 298 295 294 294 293 292 292 291 291 291 290 290
299 299 298 298 299 299 299 300 300 300 301 301 300 299 301 307 305 302 302 303 302 300 300 300 299 298 298 299 301 300 300 302 300 301 302 302 303 302 301 302 303 303 302 303 303 302 304 305 304 305 304 305 306 307 309 310 310 311 311 313 315 315 317 318 317 317 316 313 310 310 313 315 315 307 300 300 298 295 295 294 293 293 292 292 291 291 291 292
299 299 298 299 299 300 300 300 300 301 301 300 299 299 303 307 304 301 302 303 301 299 299 300 298 298 299 300 301 300 301 302 300 300 302 301 301 300 300 301 301 302 302 303 304 304 305 305 304 306 305 305 307 307 310 311 310 312 311 312 314 314 316 317 316 316 316 313 310 311 313 315 315 307 298 297 296 295 295 294 293 293 292 292 291 291 292 292
299 298 298 298 300 300 301 301 300 300 300 298 300 304 306 305 301 300 301 300 300 299 298 298 297 300 302 300 300 299 300 302 300 300 301 300 300 299 299 300 300 302 303 304 305 305 307 306 304 304 303 305 308 308 310 312 312 311 310 312 314 312 313 313 312 314 314 314 312 311 310 306 304 301 295 295 295 294 295 294 293 293 292 292 291 291 291 291
299 298 298 298 299 299 300 301 300 300 299 299 306 308 304 302 299 297 299 299 298 297 297 299 299 301 303 301 300 299 299 301 300 300 301 300 299 298 298 298 299 300 301 304 306 305 306 307 305 304 304 306 308 308 308 309 312 312 312 313 311 309 312 313 313 313 313 315 312 309 308 302 302 303 297 295 295 294 294 294 293 293 292 291 291 291 291 290
298 298 299 298 298 299 299 299 299 300 298 301 309 306 299 299 298 297 298 297 297 296 297 301 301 300 302 301 301 300 298 300 299 299 301 300 299 299 296 297 298 298 298 300 305 306 306 307 306 306 307 306 304 306 307 305 307 313 316 314 310 310 313 313 314 315 315 318 313 309 308 306 310 311 300 294 296 295 293 294 293 293 292 292 291 291 292 292
299 299 299 298 298 299 298 298 299 298 299 303 307 301 296 297 296 295 297 295 295 296 297 300 300 299 300 300 301 299 298 300 299 299 300 300 300 299 296 296 298 297 295 296 303 306 306 308 306 305 308 306 305 309 311 307 304 307 311 311 311 313 315 315 315 315 316 316 312 309 309 308 310 309 300 297 298 295 294 294 293 293 292 292 292 292 292 292
300 300 299 298 298 299 299 298 297 297 302 306 305 299 295 296 295 295 296 294 295 297 297 299 299 299 299 299 300 298 297 298 298 298 299 299 300 299 295 295 296 296 294 296 303 305 305 309 308 306 307 307 309 312 313 311 307 305 307 308 310 312 314 315 314 316 318 316 313 312 312 312 311 306 302 300 298 296 295 294 293 293 293 292 292 292 292 291
301 301 299 297 299 300 298 297 297 299 305 303 299 297 294 295 296 295 294 294 295 297 298 298 298 298 299 298 298 298 297 297 298 299 299 298 300 299 295 294 294 294 294 295 299 301 306 311 309 307 308 309 311 309 308 310 309 308 310 310 309 308 310 313 311 311 315 318 317 314 315 319 313 304 303 302 298 296 296 294 294 294 293 292 292 292 292 291
300 300 299 297 300 299 297 298 296 296 301 299 295 295 295 296 297 295 293 293 294 296 297 297 297 297 298 298 298 297 296 297 298 300 300 298 299 299 296 294 292 293 295 298 300 301 307 312 309 309 311 311 309 304 302 304 306 308 311 311 311 309 310 315 313 307 308 314 317 316 323 325 308 297 300 301 298 297 296 294 294 294 293 293 293 293 293 292
299 300 298 298 300 298 298 301 293 289 298 300 296 296 296 297 296 294 292 292 293 294 295 296 297 297 297 298 298 297 296 298 298 299 299 297 297 299 296 293 291 291 295 302 303 301 304 310 309 308 308 307 307 302 298 301 303 305 306 307 309 309 312 319 319 312 306 307 309 311 320 320 302 292 297 298 298 298 296 295 295 294 294 293 293 293 293 292
297 298 298 298 299 297 298 301 296 293 298 297 293 294 295 295 294 293 293 293 293 293 294 296 296 296 296 295 296 297 296 298 298 297 298 298 297 298 294 292 292 292 296 304 304 301 304 309 309 309 307 307 306 301 297 299 303 306 305 304 305 307 309 312 313 312 309 309 310 309 315 317 301 291 293 294 297 298 296 295 295 294 294 293 293 293 292 291
297 297 297 298 299 298 298 300 302 302 299 294 294 295 294 293 293 294 294 293 293 293 294 296 294 294 296 294 295 297 295 297 297 294 295 297 297 295 292 291 293 294 297 301 302 302 304 305 307 312 310 309 311 309 305 305 306 307 306 303 303 303 304 305 306 311 313 310 308 311 320 319 302 292 293 294 296 297 295 295 295 294 294 294 293 293 292 291
298 298 297 296 298 298 297 297 300 304 302 297 297 296 295 295 294 292 293 292 291 291 292 293 292 292 293 292 294 295 294 295 295 293 293 294 295 294 291 291 291 292 296 298 298 301 302 299 303 312 314 312 313 313 310 307 305 305 305 304 303 302 304 305 307 315 316 306 304 314 323 317 303 295 296 297 296 297 295 295 295 295 295 294 293 293 292 291
298 299 298 297 297 296 296 294 294 300 302 299 297 294 294 297 294 291 292 292 291 290 290 290 290 291 292 294 298 298 294 293 292 293 293 292 293 292 290 291 291 291 295 297 295 298 300 297 297 304 310 308 308 305 301 300 304 306 305 304 305 303 302 304 309 316 314 305 307 315 314 313 310 301 296 297 297 297 295 295 295 295 294 294 293 293 292 291
298 298 297 297 297 296 296 295 293 295 296 296 295 293 293 296 294 291 291 291 290 290 289 289 290 291 292 295 300 299 294 292 293 293 292 291 291 291 289 289 290 292 294 294 294 299 305 302 296 298 300 298 299 298 294 296 303 306 305 304 305 304 301 305 311 312 309 309 315 315 306 310 317 308 298 297 296 296 295 294 295 294 294 294 293 293 292 291
298 297 295 295 296 295 296 295 293 293 293 294 295 293 294 296 296 294 293 290 290 290 290 290 290 291 291 290 295 297 295 295 295 294 293 293 291 294 295 292 290 291 292 292 293 298 307 306 297 296 296 294 294 294 292 296 300 301 302 302 302 303 303 307 309 305 306 314 318 311 305 311 316 308 300 297 295 296 296 294 295 295 294 294 293 292 292 290
297 297 295 294 294 293 294 293 291 292 294 295 295 294 295 298 297 294 291 291 293 291 290 292 292 291 291 288 290 296 297 295 294 293 294 295 292 296 301 299 294 291 291 294 294 293 302 306 299 297 298 295 295 293 291 297 301 301 302 300 299 303 303 305 307 303 303 308 307 301 303 311 309 302 298 296 295 296 296 295 295 294 293 293 292 292 291 290
297 296 295 295 294 292 293 292 291 293 293 293 295 294 294 298 298 293 289 291 296 294 291 293 293 291 292 289 290 294 294 294 294 292 292 295 294 294 296 296 296 293 292 295 294 293 300 304 297 297 300 297 297 295 292 295 299 301 301 298 298 302 302 302 305 304 303 305 303 299 304 310 303 294 294 295 294 295 295 294 295 294 293 293 292 292 291 290
297 296 294 296 297 294 293 291 289 293 294 293 295 295 295 298 297 293 291 290 291 293 292 292 293 291 291 290 291 292 291 290 292 290 289 292 293 292 292 291 292 295 295 295 294 295 300 300 295 298 304 300 296 295 296 296 295 297 300 297 298 304 306 305 305 304 306 309 307 303 308 314 304 293 292 294 293 294 294 293 294 294 293 293 292 292 292 291
296 296 295 296 296 293 291 290 288 292 296 294 293 294 294 294 291 290 294 292 288 289 290 288 290 291 292 292 292 290 289 288 289 289 288 290 290 289 291 290 289 293 295 294 295 294 296 302 298 297 303 299 294 294 298 299 300 303 304 298 296 302 306 304 302 301 303 307 309 309 312 313 302 295 297 296 292 293 294 294 295 294 293 293 293 293 293 292
Wind_Speed
10 11 10 10 10 10 11 11 11 10 10 10 10 10 11 11 12 13 13 13 14 13 13 14 15 14 13 13 15 16 18 13 4 3 5 4 4 4 4 4 4 5 7 9 11 12 10 8 7 9 8 4 2 4 7 9 9 5 2 4 6 6 7 6 7 6 3 2 1 4 4 5 3 4 6 6 7 12 10 8 5 3 4 11 18 23 24 23
11 11 11 10 9 10 11 10 10 10 10 10 11 10 10 10 11 12 11 13 13 14 14 14 15 14 12 13 14 16 15 9 5 3 1 1 2 2 1 1 3 4 5 6 8 9 8 5 5 7 6 1 1 3 4 8 11 6 1 4 8 5 5 6 8 6 4 4 2 6 8 7 3 2 5 4 4 10 11 10 10 12 15 18 23 24 22 22
11 10 11 10 9 10 10 10 10 11 11 11 11 11 10 11 11 11 11 12 12 13 14 14 14 13 12 12 12 15 13 7 4 1 3 2 1 2 1 1 1 2 3 4 6 7 7 5 4 4 3 1 2 2 4 7 8 7 4 5 7 3 3 9 11 8 8 9 5 5 10 13 10 4 5 7 8 9 8 8 8 13 20 23 25 23 21 21
11 11 10 8 8 10 10 10 10 11 11 11 11 10 9 10 11 11 11 11 12 12 13 14 13 11 11 11 12 14 10 7 2 5 6 3 2 2 1 0 1 1 2 2 5 6 6 5 3 2 0 1 1 2 4 8 6 5 7 5 4 2 3 9 12 13 13 13 9 5 8 11 12 11 7 10 9 6 5 6 5 8 20 24 25 24 23 22
11 11 10 8 8 9 9 11 11 11 12 12 12 11 10 9 10 10 11 11 12 12 12 13 11 10 10 10 13 12 5 4 2 10 7 3 2 1 1 0 1 2 2 2 4 5 5 3 0 1 2 2 2 2 3 7 7 4 7 8 5 3 3 6 11 17 14 13 13 9 7 5 8 15 15 13 8 3 6 6 4 13 20 22 24 26 27 27
11 11 10 9 8 8 9 11 12 13 14 12 11 11 11 11 10 9 9 10 12 11 11 11 11 10 10 10 12 9 2 0 6 11 7 5 3 2 3 0 1 2 3 3 4 5 3 1 3 3 3 2 2 3 5 6 7 5 6 11 11 7 3 4 12 16 15 14 13 9 10 11 10 12 18 21 12 7 9 9 15 19 20 23 26 27 27 26
11 11 10 9 8 9 10 12 13 14 12 9 10 12 12 12 11 8 8 9 10 10 10 10 10 9 9 10 10 7 6 4 5 7 6 5 5 4 3 0 2 2 2 2 3 3 1 3 5 6 4 1 2 4 7 10 10 7 5 8 14 14 6 5 12 15 16 15 14 14 14 12 9 6 14 21 15 15 20 20 22 23 24 27 28 27 25 23
11 11 10 8 8 9 10 11 13 13 9 7 10 11 12 12 9 7 7 9 10 9 9 9 9 9 9 8 7 7 8 8 4 4 7 6 6 5 2 1 2 3 1 1 2 3 1 2 5 5 3 1 2 3 6 9 9 7 7 8 10 14 9 4 11 14 14 15 18 18 15 14 14 12 12 13 15 20 22 24 25 26 27 29 29 28 25 24
11 11 9 8 8 9 10 11 12 12 8 7 10 10 9 10 6 6 7 8 10 9 7 7 8 9 7 7 6 6 6 7 5 5 7 7 6 5 3 1 2 2 1 1 1 3 2 2 4 3 3 4 3 4 7 4 3 3 7 10 9 11 9 3 6 13 15 17 21 17 15 19 19 14 10 8 14 20 22 25 26 27 28 29 28 26 25 24
12 11 10 8 8 9 10 11 12 12 10 9 10 10 9 9 6 6 8 8 9 8 7 6 7 8 7 6 4 2 3 4 6 7 8 8 7 5 4 2 1 1 1 1 1 2 1 2 3 3 2 4 2 4 7 4 5 9 10 12 12 11 10 7 3 10 16 15 20 16 11 15 13 8 4 4 13 20 24 27 26 28 28 27 27 24 24 23
12 11 10 9 9 9 10 10 11 12 11 11 11 11 10 9 7 6 8 9 8 7 6 6 7 8 7 7 5 3 3 1 7 9 10 8 7 5 5 5 4 2 2 1 1 1 0 1 3 3 1 2 2 3 6 6 10 14 12 12 11 10 10 12 6 8 14 8 16 21 10 6 8 7 6 7 15 21 26 30 28 30 29 26 27 25 25 23
11 12 11 10 10 10 10 9 11 12 12 11 11 11 11 10 7 7 8 7 6 7 7 6 7 7 6 9 10 6 4 4 7 11 11 9 8 6 6 7 6 5 6 4 3 1 1 2 3 4 2 1 1 1 4 7 12 14 10 7 8 8 7 12 11 9 8 6 19 24 9 3 7 9 10 12 19 24 28 32 30 31 30 27 28 27 26 25
12 12 11 10 10 9 9 9 10 11 12 11 11 12 12 8 6 6 7 6 5 6 7 6 6 6 6 9 8 6 6 9 8 9 10 9 8 8 8 8 8 8 8 6 5 4 3 3 4 5 5 2 2 3 7 11 12 10 8 4 6 7 6 10 15 12 4 11 25 19 4 3 9 12 10 7 13 26 30 32 30 31 30 29 29 28 27 25
12 11 11 10 9 8 8 10 11 11 11 11 12 13 11 6 5 6 5 5 5 4 4 5 5 4 6 8 7 7 6 7 7 7 9 11 9 9 9 9 8 8 7 6 5 5 4 4 4 4 5 4 4 7 8 8 6 4 6 5 5 7 7 8 14 11 4 12 17 8 3 4 9 13 13 8 8 27 32 29 29 29 28 30 30 29 27 26
12 10 9 8 8 7 8 10 11 10 10 11 12 12 10 6 5 5 4 3 4 3 3 4 4 4 8 10 7 4 1 1 4 4 5 8 7 6 6 6 5 4 4 5 6 6 5 4 3 3 3 3 4 5 4 3 2 2 5 6 6 7 7 5 10 12 8 5 0 1 5 4 7 14 17 12 10 28 35 28 28 27 27 30 29 28 28 27
10 10 8 7 7 7 8 9 9 10 10 11 13 11 8 5 4 3 3 3 4 3 2 3 3 4 6 6 2 3 2 2 0 2 2 3 3 3 2 3 3 2 2 3 5 5 4 3 2 2 2 1 0 1 1 2 2 3 5 5 7 9 7 4 8 13 12 2 11 5 9 5 6 14 19 15 12 25 35 29 28 26 24 29 28 26 27 27
8 8 6 6 7 7 8 9 9 10 9 11 13 9 6 5 3 2 2 3 4 3 1 1 3 5 6 3 0 1 1 2 3 3 4 4 5 5 4 4 3 2 2 3 4 3 2 2 1 1 0 0 1 2 1 3 4 5 5 4 6 10 9 6 7 8 7 10 11 12 13 8 8 14 20 19 14 21 29 25 26 25 23 26 24 24 28 29
5 5 5 5 7 8 9 9 10 10 9 10 12 8 5 3 1 1 1 2 3 1 1 2 1 3 4 3 2 4 5 7 7 5 7 7 7 7 6 5 4 3 2 1 3 2 1 1 2 0 1 0 1 3 4 5 3 4 6 5 4 8 12 9 7 8 14 16 12 14 14 10 11 13 17 18 15 20 25 21 24 25 22 20 21 24 29 29
5 3 4 5 6 8 9 10 10 10 9 9 11 8 5 4 3 3 4 5 5 2 1 3 3 2 5 6 8 10 10 11 11 8 9 9 9 9 8 7 6 3 1 1 1 1 2 2 3 0 2 4 5 6 8 7 2 4 4 6 5 6 9 7 8 11 18 17 11 12 13 11 12 12 13 14 12 18 22 21 22 22 19 17 21 26 27 27
5 4 4 4 6 8 9 10 10 10 8 7 9 6 4 5 3 3 6 9 9 6 6 8 8 9 12 12 12 11 11 11 10 8 7 7 7 8 8 8 5 2 1 2 1 1 2 2 2 5 6 6 6 7 8 9 5 7 7 6 6 6 3 6 11 9 14 15 8 9 15 13 12 11 12 13 13 16 19 19 19 19 17 17 21 25 24 24
5 4 4 4 6 7 9 10 9 8 8 7 9 5 3 4 2 3 6 7 7 7 7 8 9 13 13 12 11 11 10 8 7 7 6 6 6 5 5 6 3 2 2 3 2 1 2 4 7 7 5 3 5 6 7 8 7 6 7 6 5 4 2 6 8 4 7 13 4 4 15 14 11 10 11 14 14 15 16 16 16 16 16 15 18 21 23 23
6 5 5 5 6 7 9 10 8 8 8 7 7 5 3 4 3 5 5 4 5 6 7 7 8 12 12 10 9 8 8 6 6 7 6 6 8 6 6 6 3 2 3 3 2 0 2 6 7 4 4 3 4 6 7 8 6 4 7 6 4 2 6 6 4 2 6 11 6 4 12 12 9 10 11 14 13 13 16 16 15 15 15 15 17 21 23 24
6 6 5 5 6 8 9 10 8 7 8 7 6 5 5 5 5 4 3 4 6 5 7 8 8 11 10 7 6 6 6 5 5 6 6 8 9 8 8 7 3 4 4 4 4 2 4 4 4 5 6 4 4 5 5 6 3 3 6 5 3 5 5 4 2 3 5 8 11 10 11 9 6 8 9 12 12 13 16 18 17 17 16 17 19 21 22 24
6 6 6 6 7 8 10 10 8 8 9 7 6 7 6 5 4 3 2 3 4 3 4 6 7 8 7 5 5 6 7 7 6 5 4 9 11 8 6 6 5 4 5 6 6 5 6 2 2 2 6 6 5 5 4 5 3 5 6 6 3 5 2 5 7 8 10 8 12 13 10 4 4 6 5 7 9 11 13 15 16 15 15 17 20 21 21 22
6 6 6 6 7 9 11 10 8 9 10 8 7 8 7 5 3 2 2 1 3 3 1 3 4 5 4 4 5 7 8 9 10 9 7 10 12 8 4 5 5 4 6 7 7 6 8 7 3 1 3 6 6 5 5 5 4 3 6 9 5 7 9 12 15 12 9 4 6 6 5 1 3 4 3 3 5 7 9 10 12 12 14 16 18 19 19 20
5 5 5 6 7 9 10 9 8 11 11 7 7 8 7 6 3 3 1 3 2 4 2 2 3 3 3 5 8 8 6 6 9 10 10 11 12 9 4 4 3 3 6 6 5 3 4 7 4 2 3 5 5 5 6 5 3 3 3 6 6 11 14 16 16 11 5 4 4 2 2 3 2 2 3 3 4 5 6 8 9 9 11 13 15 16 17 18
4 4 4 6 7 8 9 8 8 10 9 8 8 8 7 5 2 4 1 4 3 3 1 2 2 3 4 9 11 6 3 4 5 8 12 13 13 11 5 4 3 2 4 3 2 2 2 5 6 5 4 4 5 5 5 5 4 2 1 6 11 13 12 12 12 9 4 5 3 2 2 4 2 3 4 5 4 4 4 5 6 6 8 9 11 13 15 17
4 3 4 5 7 8 8 8 9 9 8 9 9 6 4 2 4 3 2 3 2 2 1 2 3 4 8 14 12 7 6 7 4 5 11 14 14 10 5 5 5 4 6 5 3 2 3 6 8 7 5 4 6 6 6 7 5 2 2 6 11 13 11 7 6 7 5 6 4 2 2 3 1 2 4 5 4 4 5 6 6 7 7 8 9 11 15 18
4 4 4 6 7 7 7 8 9 9 9 9 7 3 2 2 3 2 5 1 2 2 2 3 2 5 10 14 8 6 7 6 2 3 9 12 14 9 3 6 7 6 7 7 4 1 1 4 7 7 6 5 6 6 6 8 6 1 3 4 3 6 4 2 3 7 5 5 4 1 1 2 2 1 4 5 5 7 7 6 7 9 9 9 12 14 17 20
5 4 5 6 6 7 7 8 9 9 9 9 5 3 2 1 2 4 4 1 2 2 3 2 3 7 11 10 4 2 3 3 3 3 5 7 12 9 3 5 7 4 4 4 2 3 3 3 2 4 5 5 5 5 4 6 6 5 4 2 3 4 2 2 2 4 4 3 3 1 2 2 1 2 6 6 4 8 10 6 8 10 12 14 16 18 20 21
4 5 6 6 7 7 8 9 10 10 9 5 2 3 2 1 2 5 1 2 1 4 5 2 3 8 10 7 2 2 2 3 4 3 2 2 6 6 3 3 4 2 3 4 3 3 4 3 1 3 4 3 4 3 3 3 2 5 2 2 4 3 1 3 3 2 3 2 2 1 2 1 2 2 6 7 4 10 13 10 11 14 17 21 21 22 22 22
4 5 6 7 8 9 10 11 11 10 6 1 4 3 2 2 3 2 3 4 2 2 3 2 4 8 9 6 3 4 4 2 4 4 1 0 2 3 1 1 2 2 2 3 2 0 3 3 2 2 4 5 4 2 2 4 0 4 2 3 5 3 1 2 1 1 2 1 2 1 0 1 1 2 4 8 8 12 16 17 22 26 27 27 25 24 23 22
4 5 6 7 9 11 10 10 11 7 1 5 5 2 4 4 2 2 3 3 1 2 2 3 6 8 7 4 4 5 3 1 4 5 3 2 2 2 1 1 2 2 1 3 3 2 0 2 2 0 3 5 6 4 2 0 2 4 1 3 3 3 4 3 1 1 1 1 2 3 1 1 1 2 2 5 9 16 18 20 26 30 30 29 26 24 23 23
3 4 7 8 10 11 9 9 9 4 3 6 4 3 5 3 2 1 2 3 4 3 3 3 7 7 3 1 3 4 1 2 5 5 3 3 2 2 2 2 1 1 1 3 3 2 2 1 3 3 1 5 7 4 3 3 2 2 1 2 2 1 3 4 2 2 1 3 2 2 1 1 1 1 4 1 9 16 18 19 23 24 23 23 23 23 24 23
2 4 7 8 10 10 8 8 6 1 3 4 4 5 5 1 3 1 2 4 3 4 6 5 4 3 2 1 1 3 1 0 5 4 2 3 2 2 3 2 2 2 1 3 2 2 2 1 2 1 1 3 6 3 1 5 2 2 1 0 0 1 2 3 2 2 4 4 2 1 0 0 1 1 1 5 10 13 17 20 22 21 19 21 22 22 22 21
2 3 7 8 9 10 9 9 5 0 0 2 5 4 2 3 2 2 1 3 2 5 8 6 3 1 3 3 1 3 1 1 3 3 1 1 1 3 3 2 2 3 0 1 1 1 1 1 3 3 1 2 5 3 1 2 2 1 1 1 2 2 5 5 1 2 5 3 1 1 0 1 1 2 4 7 7 8 13 18 20 21 21 21 21 21 20 20
2 3 7 9 8 10 10 9 6 3 3 3 5 2 2 3 3 4 2 5 4 4 5 4 3 2 3 3 3 6 4 1 3 3 1 1 1 2 3 2 2 0 0 2 0 2 2 3 3 1 2 1 2 7 5 3 1 2 2 4 2 1 3 4 2 2 3 2 0 0 1 1 1 1 5 9 9 10 12 15 19 21 22 22 21 21 21 22
4 6 8 9 9 9 8 9 8 6 4 5 4 2 1 1 3 5 3 4 3 2 2 1 2 2 1 2 2 5 5 3 5 3 2 2 1 1 3 2 2 1 2 2 0 2 1 4 3 2 3 1 1 6 5 4 4 2 1 1 3 2 1 2 2 3 3 1 1 2 2 1 4 4 7 12 15 16 15 16 18 21 24 25 24 25 26 25
6 7 7 8 9 7 7 8 8 7 3 4 2 2 1 2 4 4 4 2 2 0 1 1 1 2 2 2 2 3 3 3 4 3 2 3 2 2 3 2 2 3 2 2 1 2 2 2 1 3 1 2 1 2 2 2 4 4 2 2 2 1 2 2 2 2 4 3 1 1 2 3 6 6 11 18 19 19 20 18 18 23 27 27 28 29 29 29
6 5 5 8 9 6 7 7 5 4 3 3 2 2 1 2 4 4 3 3 3 2 1 1 0 1 3 3 2 2 2 2 2 2 2 2 2 2 3 1 2 4 2 2 2 2 2 2 3 0 3 0 1 1 2 2 1 2 1 1 0 2 1 2 1 2 4 4 3 2 1 5 5 4 11 18 17 17 20 18 17 24 28 29 30 31 31 31
4 3 5 9 7 3 5 6 4 4 3 2 1 1 0 2 3 4 4 3 3 3 2 1 1 1 2 2 2 2 3 2 1 1 0 1 3 1 2 4 3 4 2 1 2 2 0 2 3 3 3 2 1 2 2 3 2 3 2 2 2 2 2 3 1 1 2 3 4 4 2 6 4 1 4 10 12 14 19 19 18 23 29 30 31 33 33 33
2 2 5 8 3 1 2 4 3 3 2 1 1 1 2 2 2 4 5 3 2 2 1 1 2 1 1 2 2 2 2 3 2 1 1 1 1 2 3 12 8 3 2 1 3 2 1 3 4 2 1 1 2 1 2 3 3 3 1 0 1 1 2 4 3 3 2 2 1 3 2 5 2 2 4 2 10 19 24 24 22 23 28 31 31 32 33 32
1 1 5 5 1 1 3 2 3 3 0 1 2 3 2 1 1 3 4 3 3 2 1 1 2 1 2 2 1 1 2 2 2 2 2 2 2 2 5 16 12 2 2 0 2 3 3 4 4 2 2 4 4 3 1 1 3 3 1 1 2 1 1 3 4 2 3 2 1 3 1 5 2 2 5 1 9 20 26 29 27 26 28 31 32 32 32 32
2 4 6 4 2 3 1 0 1 1 2 3 2 1 2 2 1 1 2 2 3 2 2 2 1 1 2 3 2 2 2 1 1 3 2 1 3 3 8 18 15 4 2 2 2 3 3 2 3 3 2 4 4 4 3 2 2 2 1 1 1 1 2 2 1 3 2 3 3 4 4 6 2 3 4 2 9 14 21 27 29 28 30 32 33 33 33 33
3 2 5 7 1 3 1 2 4 2 1 2 3 2 2 1 1 1 1 1 2 1 1 3 3 2 2 1 1 1 1 1 0 1 2 3 4 3 10 18 15 10 8 4 3 1 3 2 2 5 4 3 2 2 3 3 1 0 1 2 2 2 2 2 2 4 1 3 3 4 4 5 3 2 3 3 8 11 17 25 28 30 33 35 36 36 35 35
1 1 2 5 4 3 5 4 3 3 3 0 1 2 2 1 2 2 1 1 1 1 1 3 4 3 2 2 3 2 2 1 1 1 2 4 4 4 12 15 12 16 13 4 3 3 5 3 2 4 4 4 5 5 4 2 0 0 1 3 3 3 1 3 4 2 4 4 2 5 5 3 6 2 2 4 8 9 13 21 26 29 32 35 36 36 36 37
1 0 2 3 3 5 7 6 5 3 3 2 0 1 2 2 3 2 1 1 0 1 0 1 3 3 3 3 2 0 2 2 2 2 2 4 4 6 12 8 8 21 16 4 6 4 5 3 3 4 3 2 5 4 4 1 0 1 1 2 4 4 2 3 3 4 5 6 3 7 6 2 6 6 8 9 10 10 14 23 29 31 33 35 35 35 36 37
2 1 1 1 1 1 3 4 4 4 3 1 1 1 2 3 3 1 1 2 1 1 1 1 3 3 3 3 2 1 2 2 3 1 1 3 3 5 9 3 4 20 18 7 7 4 6 2 1 3 1 4 4 3 3 2 2 1 1 1 3 4 2 1 3 4 4 6 5 5 6 6 6 6 9 12 13 14 18 26 31 31 32 34 35 35 37 38
3 3 2 1 1 2 3 1 2 4 4 2 1 1 1 2 2 2 2 3 3 2 2 1 3 4 2 2 2 2 1 1 2 2 2 1 3 3 5 3 4 15 16 7 6 5 4 2 3 3 2 2 2 2 2 2 2 2 2 3 2 0 1 1 2 2 2 2 4 3 3 7 5 3 6 10 12 12 14 19 24 26 29 32 34 36 37 38
3 2 2 4 4 4 3 2 2 3 3 3 1 1 2 3 3 2 2 0 2 4 2 1 4 4 1 2 1 3 4 1 2 2 3 2 2 1 1 1 4 9 11 4 4 7 4 2 1 3 3 2 3 3 3 3 1 3 3 3 2 1 1 2 2 2 1 1 2 2 1 6 4 1 2 8 13 12 12 17 21 25 29 31 33 35 36 38
2 2 3 5 3 2 1 1 2 2 1 1 2 2 1 3 4 2 1 3 3 3 1 2 3 3 2 2 1 3 5 3 2 3 1 2 2 2 1 2 4 4 7 3 2 6 4 2 2 5 4 2 4 5 6 5 1 2 5 6 5 4 2 3 3 3 5 4 1 3 0 5 4 3 6 11 16 15 15 19 23 26 29 32 35 37 39 41
3 1 2 3 2 1 1 1 2 2 1 2 3 3 2 2 2 2 0 3 4 3 4 3 2 1 2 3 2 2 3 4 4 4 4 4 4 4 3 2 3 3 3 2 2 2 3 4 2 3 2 3 4 5 5 5 5 3 6 6 7 7 5 3 3 5 7 7 5 3 5 5 5 6 7 8 12 15 20 27 30 32 35 37 40 42 44 45
Wind_Direction
332 333 331 330 333 333 332 331 329 329 330 333 334 335 337 337 331 329 330 330 331 329 326 325 323 325 326 325 325 317 320 325 286 285 324 322 326 317 293 276 285 301 302 305 304 301 303 291 271 276 278 274 259 228 209 203 196 203 212 208 219 209 201 184 171 184 167 129 348 12 42 135 93 52 93 87 109 108 97 71 72 133 140 152 151 150 148 145
332 336 333 331 334 333 332 330 332 337 341 338 330 329 333 331 322 321 322 321 323 323 322 322 320 322 323 323 322 322 329 327 303 322 319 275 356 10 343 290 315 319 312 311 316 316 314 297 270 283 282 230 149 211 211 200 200 207 170 214 224 211 197 184 174 172 126 124 104 53 58 88 59 4 119 94 65 89 82 62 79 101 114 135 143 144 142 144
335 337 333 335 338 334 335 340 343 339 336 330 322 323 326 320 313 313 314 314 316 319 320 321 320 318 321 320 318 325 330 330 328 354 148 158 79 75 74 345 304 319 330 327 337 335 324 313 289 289 293 159 156 200 227 201 200 212 205 224 233 228 202 197 187 162 128 122 100 66 73 67 44 30 129 120 79 68 72 65 72 102 119 133 140 142 141 144
339 339 334 339 342 340 346 348 341 330 322 314 309 311 311 307 307 307 309 311 313 317 319 322 321 317 320 315 315 321 328 346 352 148 134 125 118 107 132 32 224 271 323 337 349 343 334 331 304 273 56 41 247 243 242 218 208 204 203 224 242 227 222 212 191 163 137 116 98 89 88 64 45 49 91 129 101 44 23 32 33 118 127 132 136 138 141 145
342 339 336 342 346 348 350 342 334 324 313 304 299 294 290 290 296 299 302 305 305 310 316 320 320 317 317 309 316 321 332 6 153 152 138 151 140 112 174 175 245 252 296 320 337 340 342 344 105 99 79 45 300 264 266 237 233 248 224 229 252 249 227 224 186 168 155 124 108 93 77 60 51 48 61 91 94 16 347 8 100 133 129 129 131 136 143 147
340 336 338 342 347 352 348 339 332 322 313 313 316 309 297 282 279 286 293 298 299 305 310 317 320 314 309 307 318 319 289 110 151 152 158 183 192 190 159 125 292 283 300 304 315 334 3 68 121 103 83 38 301 254 289 277 251 265 244 227 239 253 277 241 193 178 175 150 128 116 99 88 76 50 59 69 63 61 67 96 128 130 128 132 135 136 140 142
339 336 340 345 349 350 344 337 331 326 325 338 342 329 316 295 275 269 286 295 295 300 302 313 318 306 303 306 317 316 266 223 156 160 187 200 206 195 155 49 336 331 310 309 331 350 63 107 118 121 102 30 291 263 289 297 279 270 261 237 233 240 280 256 196 182 179 161 140 135 118 89 81 65 64 64 64 85 96 111 123 124 127 131 132 126 124 128
338 336 338 342 346 343 339 334 329 333 339 354 346 330 324 315 284 255 278 296 295 298 298 309 313 302 309 312 318 321 276 235 204 200 206 208 204 195 170 163 12 356 332 60 42 24 2 103 119 131 123 198 271 304 310 305 283 263 255 260 242 236 254 246 202 190 175 153 138 130 111 94 102 99 69 62 76 89 107 117 117 125 125 120 119 114 115 119
340 336 332 332 338 339 337 332 331 339 342 343 342 330 323 327 306 257 268 293 298 296 294 305 305 300 311 316 324 330 286 230 216 219 206 206 202 201 213 194 20 10 31 46 58 34 20 112 132 144 163 219 269 293 307 314 260 285 277 273 269 244 233 198 204 196 172 150 139 121 109 116 116 102 64 60 86 92 116 119 114 125 120 107 111 112 112 113
338 335 330 327 332 335 331 330 335 345 345 340 339 331 325 326 319 282 276 289 294 290 288 292 292 290 294 306 323 329 293 224 211 219 208 207 206 213 232 248 316 10 32 9 24 33 78 133 158 161 176 233 268 274 280 268 269 310 317 297 281 263 236 208 226 188 167 157 148 127 121 132 121 109 84 76 94 100 112 107 104 115 109 101 108 109 109 111
338 335 331 328 332 326 321 330 339 344 344 344 342 339 337 330 325 314 304 298 288 284 284 280 278 279 283 288 263 232 308 261 206 208 208 216 217 225 252 274 290 305 331 316 294 357 171 173 186 189 184 224 252 274 271 270 287 292 304 305 273 266 246 223 251 182 158 160 149 126 108 118 94 89 122 120 108 111 104 93 92 98 97 98 103 104 108 109
338 333 330 331 331 322 318 334 343 343 340 340 339 338 334 328 329 332 330 323 296 280 273 272 273 273 279 272 256 254 287 250 211 201 209 226 229 244 267 274 286 296 307 302 269 271 265 257 223 219 240 321 260 246 294 310 309 288 284 294 242 249 247 213 227 213 169 161 147 125 95 52 77 88 114 110 107 115 101 86 83 86 89 92 94 99 102 103
334 331 331 331 330 325 326 339 344 341 336 336 337 335 331 329 338 332 327 342 330 295 270 261 268 278 278 264 268 293 268 241 228 212 220 235 241 263 281 282 287 290 298 297 271 263 269 268 245 239 258 302 247 256 316 321 311 288 270 260 218 235 243 200 204 227 243 158 154 141 124 58 75 82 91 77 97 110 94 79 79 79 84 86 88 92 95 99
333 333 336 336 337 335 339 348 348 341 333 333 335 335 335 336 349 339 319 332 344 323 271 256 270 285 269 267 299 317 271 243 244 239 242 246 255 277 286 291 295 291 288 279 264 258 268 277 260 258 266 270 273 289 316 315 295 278 259 241 209 217 215 193 189 206 245 168 168 165 135 75 59 49 44 25 78 104 90 72 76 74 77 83 83 86 88 94
335 338 343 346 346 343 347 355 355 349 341 337 335 335 337 335 340 344 334 337 347 328 267 254 274 279 277 285 315 338 310 222 239 246 257 252 263 282 279 293 303 299 284 264 262 262 270 289 276 260 257 267 294 308 324 310 263 241 248 218 193 212 197 193 188 184 192 167 88 177 132 82 43 34 41 45 62 98 92 75 76 71 71 79 78 80 83 88
334 339 348 353 349 345 346 349 352 353 349 343 339 336 334 336 343 349 359 16 16 351 265 258 288 279 288 300 355 66 87 63 19 212 232 243 248 258 266 298 304 304 291 264 266 267 268 281 289 260 235 248 29 24 339 302 264 222 238 208 187 202 185 182 190 187 192 101 19 51 126 103 48 39 47 51 47 89 91 79 78 70 65 74 74 75 81 88
330 339 349 356 352 347 343 340 339 343 347 343 340 338 336 346 6 13 17 30 26 23 164 209 300 281 276 274 70 78 160 333 326 238 226 236 238 247 270 289 311 319 287 268 271 269 267 267 261 253 219 98 102 110 192 239 244 222 226 241 205 192 184 179 170 162 140 95 62 72 94 91 70 53 54 50 39 77 84 79 80 72 65 71 72 72 78 84
319 335 343 347 348 347 345 337 329 335 347 345 337 335 336 341 352 292 325 1 345 345 207 214 262 288 278 256 276 307 304 297 296 264 245 246 246 256 265 272 293 319 316 278 268 243 211 15 53 11 7 73 148 156 203 217 232 229 217 237 233 186 184 181 154 113 90 90 86 84 85 77 70 58 54 49 42 67 77 78 80 76 70 69 69 72 74 78
297 310 327 337 346 347 344 337 327 331 345 348 339 332 326 320 299 262 262 299 299 256 245 251 228 252 276 284 293 305 307 296 289 274 256 251 251 254 255 259 263 276 14 55 341 138 156 60 55 149 223 213 200 183 210 227 272 337 287 248 241 193 185 159 119 111 98 83 59 79 93 78 64 49 42 41 38 62 74 76 76 77 72 67 70 73 73 75
281 289 314 330 345 346 343 338 328 328 337 348 344 338 335 341 330 269 271 286 277 248 257 265 259 263 273 285 297 305 303 293 285 270 252 248 242 241 238 236 236 219 114 128 140 61 145 160 213 219 218 215 212 199 216 241 282 335 323 276 244 213 182 110 121 131 103 84 43 69 89 75 64 51 29 24 32 50 62 70 71 73 72 68 71 75 77 77
280 277 297 324 341 344 343 338 327 325 332 341 348 355 13 9 356 298 301 288 259 246 262 267 266 271 278 291 299 305 304 293 276 255 251 244 217 207 205 194 168 154 170 144 128 25 131 202 230 223 217 209 207 208 225 251 262 289 294 273 252 219 120 101 126 153 100 97 103 86 82 68 58 60 33 26 36 39 45 62 66 70 75 70 70 76 80 81
292 278 290 318 332 339 342 338 327 322 328 334 343 350 356 349 320 304 312 290 260 252 256 259 272 284 289 294 293 294 290 282 278 261 246 225 208 198 176 159 142 166 159 128 114 35 212 237 253 224 198 213 209 204 220 246 239 241 268 261 253 175 113 94 59 50 90 102 142 139 85 74 61 62 47 37 40 38 48 63 65 68 72 69 72 77 80 83
302 287 292 312 327 332 335 335 325 319 325 327 326 324 327 326 321 328 325 290 282 261 244 255 284 301 300 296 289 277 264 260 280 277 239 212 206 195 170 151 153 162 156 175 173 190 219 239 263 218 197 211 238 232 223 250 234 186 256 268 207 189 147 112 43 28 54 100 143 133 89 87 79 65 57 46 44 44 54 67 70 71 73 73 77 79 82 84
310 297 294 310 322 324 326 329 325 321 321 319 309 304 314 318 322 336 306 281 296 278 250 273 299 307 302 305 291 268 262 255 257 266 229 197 186 178 177 161 148 167 190 198 193 213 226 226 5 211 195 194 217 241 229 239 240 187 230 266 215 189 134 103 120 93 67 95 138 121 88 76 69 66 65 50 47 46 50 62 67 69 76 80 82 81 81 84
322 305 298 310 317 316 321 329 331 325 317 311 300 297 306 308 292 293 296 357 318 296 302 313 318 318 309 328 305 273 268 266 258 252 227 199 184 167 171 171 158 191 198 193 203 232 242 247 303 2 205 201 198 226 227 218 247 222 219 245 221 144 115 116 126 113 90 135 185 141 104 82 66 80 90 65 58 51 44 55 58 59 70 78 81 82 85 86
332 311 303 308 313 316 321 331 336 325 317 307 297 298 305 303 267 228 227 57 345 293 344 325 305 323 310 335 323 287 265 266 258 238 220 212 199 176 151 160 170 201 184 182 211 242 252 236 220 175 206 209 200 224 229 204 230 266 225 217 178 134 134 139 134 123 116 152 202 231 153 142 130 116 127 127 104 81 61 61 65 60 65 74 81 88 93 93
339 325 310 305 315 323 322 328 328 322 321 311 302 301 302 296 206 196 244 35 356 287 327 264 270 317 305 329 325 278 242 289 267 228 212 206 200 191 178 161 159 175 151 144 220 216 191 199 183 169 190 207 209 225 216 189 202 261 69 157 154 140 148 158 139 126 129 120 101 343 102 122 141 145 156 153 124 111 109 93 88 86 82 85 89 95 101 101
339 333 321 315 323 326 323 326 325 326 322 308 307 303 287 223 173 176 93 54 323 296 344 272 269 295 312 331 322 251 259 300 293 227 207 200 195 191 196 189 172 166 157 158 217 208 146 190 190 173 182 209 213 218 194 181 210 233 120 166 162 149 156 176 130 113 133 132 114 342 57 98 120 127 152 163 154 170 172 152 133 124 120 115 110 111 112 112
332 334 330 325 325 323 323 327 328 328 316 308 314 286 233 151 169 106 78 70 295 10 1 315 306 308 322 334 319 247 267 288 283 209 192 195 199 192 204 204 178 159 172 182 218 221 147 219 205 175 188 213 211 224 201 189 215 147 132 198 147 119 149 184 121 118 136 147 133 326 4 105 160 181 169 184 204 200 183 163 153 149 149 145 138 135 129 124
324 332 333 327 323 321 324 328 330 328 315 309 300 213 170 142 142 63 43 278 273 350 334 324 321 320 332 339 318 238 262 261 291 264 202 204 208 195 162 185 172 139 178 202 237 253 295 297 231 190 210 212 200 234 238 212 205 90 91 200 61 50 5 21 56 99 112 145 114 34 337 75 136 216 191 195 198 169 164 161 160 161 163 160 152 146 142 139
320 325 331 331 324 325 332 331 329 325 315 307 233 161 135 321 74 81 60 257 267 335 341 350 320 329 342 348 317 285 286 265 312 309 221 220 201 178 123 155 165 113 165 205 230 266 309 328 254 250 245 194 177 236 300 304 191 101 69 208 107 68 12 42 359 36 96 143 84 62 304 63 116 217 204 201 168 151 161 164 165 171 174 169 163 160 160 157
317 319 330 335 329 335 341 331 325 321 314 99 127 134 110 357 23 108 257 314 345 324 340 320 318 336 331 326 311 303 311 301 322 336 331 309 132 137 113 168 166 126 172 199 179 303 294 268 223 285 262 188 155 192 311 348 218 117 58 199 144 105 125 108 42 75 95 35 25 352 303 67 209 262 211 196 172 166 173 173 171 173 175 174 172 172 171 164
311 322 335 339 338 342 343 329 323 321 310 120 121 114 84 64 15 245 270 324 290 266 335 313 311 324 313 309 332 319 316 29 345 340 1 31 64 93 43 357 148 152 192 176 160 134 219 265 221 306 283 202 166 169 188 346 195 162 141 197 170 114 146 151 119 102 92 64 359 317 13 70 256 317 292 203 175 176 179 176 174 173 173 176 176 175 170 164
304 334 341 342 347 346 344 335 325 318 122 114 114 78 68 65 292 334 333 268 262 305 333 321 315 317 322 305 328 335 340 55 10 343 342 11 40 42 358 349 147 195 174 148 169 191 155 295 215 174 207 192 176 196 190 117 128 183 172 176 156 112 150 147 151 169 120 107 80 331 349 159 194 338 334 97 147 164 171 171 172 173 174 175 174 171 167 166
302 346 348 346 356 359 358 354 342 314 123 100 81 66 79 145 268 349 316 260 276 325 303 307 321 313 338 297 268 354 15 52 7 356 353 20 38 5 340 321 339 345 198 168 183 217 172 357 280 258 332 169 173 212 165 102 101 257 261 124 96 151 136 115 160 144 99 96 86 43 280 217 137 205 305 106 125 148 158 163 169 173 176 175 173 172 170 170
292 346 355 348 0 13 11 4 7 13 240 75 68 60 135 197 216 181 283 296 300 319 310 321 1 358 337 323 298 353 349 199 349 354 36 76 76 8 337 272 316 3 11 207 171 192 185 64 355 336 358 183 181 171 87 108 170 187 186 221 234 175 128 115 118 68 84 100 93 93 296 1 54 193 167 139 141 157 159 168 175 176 177 177 178 178 175 172
272 317 346 346 355 11 9 10 21 358 336 60 85 93 208 196 182 188 284 324 295 302 328 343 2 16 342 305 312 342 335 305 339 348 28 51 94 15 343 294 274 189 33 318 231 209 179 87 21 356 120 216 183 118 77 359 66 115 202 203 167 108 82 95 94 52 82 129 153 15 292 272 258 205 160 164 181 187 181 179 181 181 182 183 184 183 179 174
261 295 321 339 348 357 360 6 3 333 348 55 83 144 184 187 196 209 272 312 289 311 9 354 301 342 356 282 304 333 328 342 351 350 10 342 326 37 355 319 261 263 334 328 280 271 207 97 12 314 133 129 289 114 94 343 4 69 232 197 104 99 68 87 123 133 124 132 259 315 332 221 215 200 176 189 195 192 189 186 186 188 187 186 186 185 182 179
262 289 304 334 346 346 345 349 337 319 5 68 89 198 198 255 239 247 280 273 203 192 336 287 283 335 331 286 292 320 332 2 348 339 27 345 321 97 53 333 267 300 316 185 176 314 303 103 60 301 206 153 346 67 132 297 358 39 18 349 25 99 147 139 130 134 129 130 173 340 353 254 226 196 186 198 198 187 184 188 191 190 188 187 187 187 186 185
260 278 292 325 340 345 343 345 340 349 58 108 202 225 271 285 272 285 296 256 202 169 251 275 236 305 306 298 294 317 336 359 329 334 28 328 306 100 77 29 305 310 312 192 225 299 325 37 111 263 321 46 105 34 145 176 21 62 95 266 334 62 133 146 80 85 119 135 163 143 286 255 241 185 190 198 195 187 186 187 186 187 187 188 189 189 189 188
263 263 298 321 330 330 348 4 20 38 71 138 215 190 313 294 293 317 322 282 234 190 186 185 168 253 302 317 315 312 321 324 310 312 300 335 355 65 59 21 343 295 341 109 243 249 67 53 109 118 23 37 237 261 166 162 176 163 178 219 170 133 142 124 86 309 111 126 164 151 199 258 272 358 217 197 184 185 186 183 183 187 188 189 192 193 193 191
246 237 310 326 329 297 8 29 38 53 101 133 233 211 287 309 304 319 332 333 288 233 207 167 165 190 218 249 298 318 321 311 301 314 275 299 356 206 323 353 345 250 205 171 249 275 112 92 78 75 46 261 266 271 152 167 159 146 153 52 118 128 103 116 171 206 122 95 148 125 181 264 273 1 328 237 181 179 180 182 184 187 189 190 193 196 196 196
63 32 326 323 244 92 41 32 5 10 117 250 255 220 242 276 267 312 335 358 344 313 328 293 193 189 196 206 271 313 319 313 290 327 315 260 289 245 333 354 356 236 202 313 289 342 43 93 74 34 321 317 325 351 350 185 116 109 310 43 98 245 78 130 186 171 113 148 133 96 225 269 284 349 343 340 171 171 176 183 184 183 189 193 195 197 198 198
26 29 11 2 238 245 350 176 203 314 290 308 340 293 244 226 197 358 340 344 338 324 323 297 256 251 232 193 160 220 295 346 314 331 349 290 313 332 1 5 11 15 351 349 297 345 29 70 87 93 45 351 346 348 318 268 102 112 258 350 77 187 99 112 153 69 91 196 147 122 220 258 294 359 2 102 150 161 175 184 185 183 187 192 196 198 199 197
300 346 23 30 334 231 172 133 153 153 261 329 345 340 329 256 206 168 214 285 348 344 302 299 311 310 258 201 99 310 325 45 281 338 22 320 302 323 355 1 11 7 345 317 288 347 88 87 96 123 143 177 199 244 239 238 264 62 299 1 33 82 111 140 121 82 129 191 138 142 213 266 300 359 26 137 154 161 174 182 187 189 190 193 196 197 197 197
307 271 349 21 37 77 80 77 94 117 134 120 313 316 3 321 269 268 219 191 8 8 331 322 329 319 298 42 54 9 347 306 276 24 17 325 289 299 333 342 3 3 353 345 4 47 109 76 51 112 134 177 191 222 241 257 320 236 347 0 15 20 29 100 105 141 179 153 183 222 203 293 302 253 163 188 176 171 176 180 187 192 192 194 195 196 196 197
38 217 323 3 27 49 57 43 34 72 125 148 201 305 319 299 305 317 232 198 24 23 33 21 16 347 317 1 43 355 324 320 345 42 348 310 262 288 322 329 8 6 5 22 11 34 113 59 27 92 78 200 203 235 265 297 147 193 3 349 350 354 7 87 131 206 161 125 255 251 179 191 274 215 189 198 185 178 184 185 188 191 193 194 194 195 196 197
44 145 73 35 281 3 40 16 19 53 64 89 130 26 337 313 321 310 249 302 358 50 31 14 20 6 322 331 349 323 346 7 7 356 288 315 295 313 336 316 6 10 14 18 6 44 115 93 204 140 106 227 224 281 279 208 177 184 125 177 330 357 22 138 210 223 146 140 240 255 175 197 252 222 202 200 191 189 190 190 190 191 190 191 192 193 195 197
96 119 94 80 150 151 126 79 61 67 42 28 45 83 158 255 285 248 262 342 350 359 46 35 323 335 337 349 351 287 295 59 9 297 233 325 315 318 0 329 318 6 17 20 8 31 92 134 200 141 93 235 250 312 307 111 149 213 193 200 224 334 114 151 226 254 99 149 253 277 222 241 261 248 228 207 194 195 189 187 189 188 189 190 191 193 196 197
112 128 136 124 105 95 106 113 91 68 19 12 330 265 171 190 243 250 228 189 313 321 27 117 294 305 334 44 68 273 293 17 39 334 186 147 348 289 67 251 270 346 10 35 0 358 44 124 215 84 74 309 321 6 2 16 163 209 250 246 212 156 221 174 168 191 151 219 295 40 328 277 277 255 196 173 172 175 173 180 188 190 191 192 192 196 198 199
54 111 136 123 100 64 48 69 91 87 4 341 221 239 212 212 220 206 226 217 218 284 308 185 268 301 348 36 71 280 298 286 309 336 215 185 332 305 266 201 219 318 0 34 359 351 43 87 1 51 86 274 332 14 349 345 19 242 270 250 205 181 217 198 178 192 180 171 101 66 355 267 238 131 113 148 165 169 172 181 188 192 195 195 196 199 201 203
42 118 162 123 94 144 157 70 63 92 246 228 193 214 262 262 218 134 24 258 220 249 285 246 224 304 355 350 309 264 273 256 266 307 289 266 286 282 283 271 230 264 337 53 51 12 78 96 40 50 87 268 321 1 345 9 32 306 269 237 203 190 188 190 218 235 199 161 139 170 216 225 183 150 138 154 170 178 186 191 193 194 197 200 203 204 205 207